Regional Weather Roundup
Issued by NWS Northern Indiana

Home | Current Version | Previous Version | Graphics & Text | Print | Product List | Glossary On
Versions: 1 2 3 4 5 6 7 8 9 10 11 12 13 14 15 16 17 18 19 20 21 22 23 24 25 26 27 28 29 30 31 32 33 34 35 36 37 38 39 40 41 42 43 44 45 46 47 48 49 50
000
ASUS43 KIWX 020010
RWRIWX

KIWX WEATHER ROUNDUP
NATIONAL WEATHER SERVICE NORTHERN INDIANA
800 PM EDT WED JUL 01 2015

NOTE: "FAIR" INDICATES FEW OR NO CLOUDS BELOW 12,000 FEET WITH NO
SIGNIFICANT WEATHER AND/OR OBSTRUCTIONS TO VISIBILITY.

* THESE STATIONS ARE NOT UNDER NWS QUALITY CONTROL. THEY ALSO MAY NOT
  REPORT WEATHER SUCH AS PRECIPITATION OR FOG.

INZ001>027-020100-
NORTHERN INDIANA

CITY           SKY/WX    TMP DP  RH WIND       PRES   REMARKS
GARY*          PTSUNNY   61  54  77 N10       29.99R
VALPARAISO     MOSUNNY   61  51  70 N6        29.98R
6HR MIN TEMP:  61; 6HR MAX TEMP:  68;

MICHIGAN CITY* PTSUNNY   57  50  77 NE7       29.98S
LAPORTE*       MOSUNNY   62  52  71 N9        29.98S
6HR MIN TEMP:  62; 6HR MAX TEMP:  68;

KNOX*          MOSUNNY   61  50  67 N9        29.96R
SOUTH BEND     PTSUNNY   61  52  72 NW9       29.97R
6HR MIN TEMP:  61; 6HR MAX TEMP:  69;

ELKHART*       PTSUNNY   61  50  67 NW6       29.96R
GOSHEN         MOSUNNY   64  53  67 NW12      29.94R
6HR MIN TEMP:  64; 6HR MAX TEMP:  72;

MONTICELLO*    PTSUNNY   68  57  68 N3        29.93R
6HR MIN TEMP:  68; 6HR MAX TEMP:  73;

LOGANSPORT*    PTSUNNY   68  54  60 N9        29.94R
ROCHESTER*     MOSUNNY   68  54  60 NW8       29.94S
WARSAW*          N/A     64  52  63 NW8       29.94R
ANGOLA*        SUNNY     72  64  78 W5        29.92R
FORT WAYNE     PTSUNNY   71  58  63 NW8       29.92R
6HR MIN TEMP:  71; 6HR MAX TEMP:  76;

HUNTINGTON*    MOSUNNY   69  58  67 N7        29.92R
6HR MIN TEMP:  69; 6HR MAX TEMP:  76;

PERU/GRISSOM   PTSUNNY   70  60  71 N8        29.92R
6HR MIN TEMP:  70; 6HR MAX TEMP:  74;

MARION*        PTSUNNY   71  59  66 N5        29.93R
6HR MIN TEMP:  52; 6HR MAX TEMP:  78;


$$
INZ028>050-020100-
CENTRAL INDIANA

CITY           SKY/WX    TMP DP  RH WIND       PRES   REMARKS
LAFAYETTE      PTSUNNY   70  60  70 N10       29.92R
6HR MIN TEMP:  70; 6HR MAX TEMP:  75;

KOKOMO*        PTSUNNY   72  61  68 NE10      29.91S
6HR MIN TEMP:  72; 6HR MAX TEMP:  75;

MUNCIE*        CLOUDY    73  62  68 N5        29.92R
6HR MIN TEMP:  73; 6HR MAX TEMP:  77;

INDIANAPOLIS   CLOUDY    75  60  59 CALM      29.89R
6HR MIN TEMP:  73; 6HR MAX TEMP:  78; 6HR PCP:  0.01;


$$
MIZ043>046-050>051-056>058-064>065-071>073-077>080-020100-
SOUTHWEST LOWER MICHIGAN

CITY           SKY/WX    TMP DP  RH WIND       PRES   REMARKS
BATTLE CREEK   PTSUNNY   65  53  65 NW9       29.94S
6HR MIN TEMP:  65; 6HR MAX TEMP:  72;

BENTON HARBOR  CLOUDY    57  51  80 CALM      29.98R
6HR MIN TEMP:  57; 6HR MAX TEMP:  62;

COLDWATER*     PTSUNNY   65  52  63 NW7       29.93R
6HR MIN TEMP:  65; 6HR MAX TEMP:  71;

HILLSDALE*     PTSUNNY   67  53  58 NW6       29.93R
6HR MIN TEMP:  67; 6HR MAX TEMP:  73;

HOLLAND        CLOUDY    60  52  74 N5        29.96S
6HR MIN TEMP:  59; 6HR MAX TEMP:  64;

GRAND RAPIDS   PTSUNNY   63  51  65 NW7       29.94S
6HR MIN TEMP:  63; 6HR MAX TEMP:  70;

KALAMAZOO      PTSUNNY   62  52  69 NW9       29.95S
6HR MIN TEMP:  62; 6HR MAX TEMP:  71;

STURGIS*       PTSUNNY   61  54  77 NW8       29.95R
THREE RIVERS*  FAIR      61  52  71 NW9G17    29.95R
6HR MIN TEMP:  61; 6HR MAX TEMP:  70;


$$
OHZ001>008-015>018-024>025-020100-
NORTHWEST OHIO

CITY           SKY/WX    TMP DP  RH WIND       PRES   REMARKS
DEFIANCE       SUNNY     70  56  61 NW8       29.91R
6HR MIN TEMP:  70; 6HR MAX TEMP:  76;

FINDLAY        SUNNY     73  56  54 NW5       29.90R
6HR MIN TEMP:  71; 6HR MAX TEMP:  77;

TOLEDO EXPRESS PTSUNNY   71  55  56 NW6       29.90R
6HR MIN TEMP:  70; 6HR MAX TEMP:  75;

TOLEDO METCALF MOSUNNY   73  54  51 W7        29.91R
6HR MIN TEMP:  72; 6HR MAX TEMP:  76;

LIMA           MOSUNNY   72  58  61 N5        29.91R
6HR MIN TEMP:  71; 6HR MAX TEMP:  75;


$$
AND FOR LAKE MICHIGAN COASTAL AND OPEN LAKE BUOY OBSERVATIONS

STATION/POSITION TEMP    WIND        PRES    VSBY  WAVE
                 AIR SEA DIR/SP/G                  HT/PER
                 (F)     (DEG/KT/KT) (MB)    (MI)  (FT/S)
CALUMET HARBOR    59      30/  9/ 11   N/A
MICHIGAN CITY     58      20/ 11/ 13   N/A
BURNS HARBOR      60      50/ 12/ 13 1015.6R
SAINT JOSEPH      58     350/  6/ 11   N/A
4 MI NW BRIDGMAN  58 63                N/A           3/ 4
MICHIGAN CITY     59 65   40/ 10/ 14   N/A           3/ 4

$$
&&



USA.gov is the U.S. government's official web portal to all federal, state and local government web resources and services.